Temperature
22 22 22 21 20 20 19 19 19 19 19 18 18 18 18 18 18 17 17 17 17 17 16 16 16 16 16 16 16 16 15 15 15 15 14 14 14 14 14 14 14 14 14
22 22 21 20 19 19 18 18 18 18 18 18 18 18 17 17 17 17 17 17 16 16 16 16 15 15 15 15 15 15 15 15 14 14 14 14 14 14 13 13 13 13 13
21 21 20 19 19 18 18 18 17 18 17 17 17 17 17 17 17 16 16 16 16 16 16 15 15 15 15 15 15 15 15 14 14 13 13 14 14 13 13 13 13 13 13
20 20 19 19 18 17 17 17 17 17 17 17 17 17 17 16 16 16 16 16 16 15 15 15 15 15 15 15 15 15 14 14 13 13 13 13 13 13 13 12 12 12 12
19 19 19 18 17 17 17 17 17 17 17 17 17 16 16 16 16 16 16 15 15 15 15 15 15 15 15 15 15 14 14 13 13 13 12 13 13 12 12 12 12 12 12
19 18 18 17 17 17 17 17 16 16 16 16 16 16 16 16 16 15 15 15 15 15 15 15 15 15 15 15 14 14 13 13 12 12 12 12 12 12 12 12 12 12 12
18 18 17 17 17 17 16 16 16 16 16 16 16 16 16 15 15 15 15 15 14 14 14 14 14 14 14 14 14 13 13 12 12 12 12 12 12 12 12 12 12 12 12
18 17 17 17 16 16 16 16 16 16 16 16 16 16 15 15 15 15 14 14 14 14 14 14 14 14 14 14 14 13 12 12 12 12 12 12 12 11 12 12 11 11 11
17 17 17 16 16 16 16 16 16 16 16 16 16 15 15 15 15 14 14 14 14 14 14 14 14 14 14 13 13 13 12 12 11 11 11 12 11 11 11 11 11 11 11
17 16 16 16 16 16 16 16 16 16 16 16 15 15 15 14 14 14 14 14 13 13 13 13 13 13 13 13 13 12 12 11 11 11 11 11 11 11 11 11 11 11 11
16 16 16 16 16 16 16 16 16 16 15 15 15 15 14 14 14 14 13 13 13 13 13 13 13 13 13 12 12 12 11 11 11 11 11 11 11 11 11 11 11 11 11
15 15 15 15 15 15 15 15 15 15 15 15 15 14 14 14 13 13 13 13 13 13 12 12 12 12 12 12 12 11 11 11 11 11 11 11 11 10 10 11 11 11 10
14 14 15 15 15 15 15 15 15 15 15 15 14 14 14 13 13 13 13 12 12 12 12 12 12 12 12 12 11 11 11 11 11 11 11 11 11 10 10 11 10 10 10
14 14 14 14 15 15 15 15 15 14 14 14 14 14 14 13 13 13 13 12 12 12 11 11 11 11 11 11 11 11 11 10 10 11 11 11 10 10 10 10 10 10 10
13 13 14 14 14 14 14 14 14 14 14 14 14 14 14 13 13 13 12 12 12 11 11 11 11 10 11 11 10 10 10 10 10 10 11 10 10 10 10 10 10 10 10
13 13 13 13 14 14 14 14 14 14 14 14 14 14 13 13 13 13 12 12 11 11 11 11 10 10 10 10 10 10 10 10 10 10 10 10 10 10 10 10 9 9 9
13 13 13 13 13 13 14 14 14 13 14 14 14 13 13 13 13 13 12 12 11 11 11 10 10 10 10 10 10 10 10 10 10 10 10 10 10 10 10 10 9 9 9
12 12 12 13 13 13 13 13 13 13 13 13 13 13 13 13 13 13 12 12 11 11 11 10 10 10 10 10 10 10 10 10 10 10 10 10 10 10 10 10 10 9 9
11 12 12 12 12 13 13 13 13 13 13 13 13 13 13 13 13 13 12 12 11 11 10 10 10 10 10 10 9 9 10 10 10 10 9 9 9 10 10 10 10 9 9
11 11 12 12 12 12 12 12 12 12 13 13 13 13 13 13 12 12 12 12 11 11 10 10 10 10 10 10 9 9 9 9 9 9 9 9 9 9 10 10 10 10 9
10 11 11 11 12 12 12 12 12 12 12 12 13 13 12 12 12 12 12 12 11 11 10 10 10 10 10 9 9 9 9 9 9 9 9 9 9 9 9 9 10 10 9
10 10 11 11 11 11 11 12 12 12 12 12 12 12 12 12 12 12 12 12 11 11 10 10 10 10 9 9 9 9 8 9 9 9 9 9 9 9 9 9 9 9 9
9 10 10 10 11 11 11 11 11 11 11 11 12 12 12 12 12 12 12 12 11 11 10 10 10 10 10 9 10 10 9 9 9 9 9 9 9 9 9 9 9 9 9
9 9 10 10 10 10 11 11 11 11 11 11 11 12 11 11 11 11 12 11 11 11 11 10 10 10 10 10 9 10 10 10 10 9 9 9 9 9 9 10 9 9 9
8 9 9 9 10 10 10 10 11 11 11 11 11 11 11 11 11 11 11 11 11 11 10 10 10 10 10 10 10 10 10 10 11 10 9 9 9 9 9 9 9 9 9
8 8 9 9 9 10 10 10 10 11 11 11 11 11 11 11 11 11 11 11 11 11 10 10 10 10 10 10 10 10 10 10 10 10 10 10 9 9 9 9 9 9 9
Wind_Speed
8 14 21 20 21 21 22 22 22 21 21 20 20 20 20 20 20 20 20 20 19 19 19 19 18 18 18 18 18 18 18 18 17 17 16 16 15 15 15 15 17 16 18
9 15 21 20 20 21 21 22 22 21 21 21 21 21 20 20 20 20 20 20 19 19 19 19 19 19 19 18 18 17 17 16 16 16 16 15 15 15 17 18 17 16 18
10 15 19 20 19 20 21 21 21 22 21 21 21 21 21 20 20 20 20 19 19 19 19 19 19 19 19 18 17 17 16 14 14 14 15 15 15 16 17 17 18 17 17
9 12 16 19 19 20 20 21 22 22 22 22 21 21 21 21 20 20 20 19 19 19 19 19 19 19 18 18 17 16 14 12 10 11 12 14 14 16 17 17 17 17 17
8 10 16 20 19 20 20 21 22 22 22 22 22 22 21 21 20 20 19 19 20 20 20 19 19 19 18 17 16 14 12 10 10 13 16 15 14 16 16 16 16 16 16
6 8 14 20 20 20 20 21 21 22 23 23 22 22 22 21 21 20 20 20 20 20 20 19 19 18 18 17 15 13 10 9 10 14 15 15 13 15 15 15 15 16 17
4 7 12 20 20 20 20 21 21 22 23 23 23 22 22 22 21 20 20 20 20 20 20 19 19 18 17 16 14 12 9 8 12 15 15 14 13 15 15 15 16 16 16
2 6 10 18 20 20 20 21 21 23 23 23 23 23 22 22 22 21 21 21 20 20 20 19 19 18 17 15 13 10 7 8 13 15 15 13 13 15 15 15 15 16 16
1 5 8 11 16 19 19 20 21 22 23 23 23 23 23 22 23 22 22 21 20 20 20 20 19 18 17 15 13 9 7 9 12 13 14 12 14 15 15 14 15 15 14
1 4 7 9 11 13 15 18 20 22 22 23 23 22 23 23 22 22 21 21 21 20 20 20 19 18 17 15 12 8 6 7 12 13 13 12 13 14 14 14 14 13 13
3 4 7 9 10 10 12 16 18 20 21 21 21 22 21 18 19 19 20 21 21 21 20 20 19 18 16 14 11 7 4 7 13 13 12 12 13 13 13 13 13 12 12
5 5 6 8 9 10 10 11 12 14 16 17 17 19 17 16 16 17 20 21 21 21 20 20 19 17 14 11 9 7 5 9 13 13 12 12 12 13 12 12 12 11 11
8 7 7 8 8 9 8 8 7 8 10 13 17 17 16 14 14 15 14 16 18 18 16 17 16 13 12 10 7 6 6 8 11 12 12 12 11 12 12 11 11 10 10
9 9 9 8 8 8 9 8 8 8 8 9 14 17 13 10 10 11 10 12 13 12 12 11 9 10 11 11 8 6 6 8 11 13 12 12 11 11 10 10 9 9 8
11 10 10 8 9 8 8 8 8 9 9 11 12 15 15 11 11 11 10 11 11 12 11 8 7 8 8 8 8 7 6 8 12 13 11 12 11 10 9 9 8 8 7
11 10 10 10 9 9 8 9 8 9 10 11 11 14 17 13 12 11 11 10 10 12 12 9 8 7 6 6 6 6 7 8 12 14 13 12 10 10 9 8 7 7 6
11 11 11 10 10 10 10 9 8 8 9 10 11 15 17 16 14 11 11 11 10 13 12 8 8 7 6 5 5 5 5 7 10 12 13 12 10 9 8 7 7 6 5
11 11 11 11 10 9 9 9 8 8 9 9 11 13 17 18 17 12 11 10 12 12 9 7 7 6 6 5 5 4 4 5 7 10 11 12 11 9 8 7 6 5 4
10 11 11 10 10 9 9 8 9 9 9 9 11 11 15 17 18 13 11 10 13 9 8 9 7 7 7 6 5 4 4 4 4 6 7 9 10 11 10 8 7 5 4
10 10 11 10 10 9 8 7 7 9 9 8 10 11 15 15 17 14 11 13 13 10 8 8 9 7 6 7 6 5 3 3 4 4 5 7 8 10 10 9 8 6 5
8 9 9 10 10 9 8 8 8 9 9 8 9 13 14 15 16 14 12 13 12 11 10 10 8 9 7 7 6 4 2 2 3 3 4 4 5 8 9 9 8 7 6
8 9 9 9 9 10 8 8 7 8 8 8 9 12 14 15 15 15 15 14 13 11 12 11 9 7 6 7 6 6 3 1 2 3 3 4 4 5 6 8 8 7 7
7 7 7 8 8 9 9 7 7 6 7 7 9 11 12 14 16 15 16 15 14 13 12 12 11 9 9 7 7 5 4 4 3 2 4 4 4 4 4 6 7 8 7
6 6 6 6 8 8 8 8 11 9 9 9 9 9 11 13 15 15 16 16 15 12 13 13 11 9 10 9 7 4 3 4 4 3 2 4 5 5 5 5 6 7 7
6 5 5 6 6 8 9 9 10 10 9 8 10 11 11 12 13 15 15 15 15 13 13 13 12 11 9 9 7 4 2 2 3 4 3 3 3 4 4 5 5 6 7
6 3 4 5 6 7 9 10 11 12 11 12 13 13 12 11 11 14 14 14 14 13 14 13 13 13 10 9 7 5 4 4 4 3 3 4 3 3 3 3 4 5 7
Wind_Direction
128 147 160 163 165 163 160 158 156 154 152 150 148 144 141 137 134 131 128 126 124 123 121 118 114 110 106 103 100 97 96 94 93 91 88 87 85 82 79 81 80 73 74
131 146 160 163 166 165 163 160 157 155 154 152 150 147 144 142 138 136 133 131 129 126 123 120 117 114 110 107 104 102 101 101 100 98 92 87 85 84 81 81 82 80 76
127 144 160 164 167 167 166 163 159 157 156 154 152 150 147 145 142 140 137 134 131 128 124 121 118 115 112 109 107 106 106 108 109 106 97 93 89 88 86 84 82 81 78
128 144 160 164 168 169 169 167 163 160 158 157 155 152 150 148 146 144 140 137 133 128 125 122 119 117 114 111 109 109 110 110 105 102 96 93 91 90 89 86 83 81 79
129 146 159 165 170 172 172 170 167 164 162 160 158 155 153 150 148 145 142 137 134 130 127 124 122 119 117 114 113 114 113 105 94 91 92 91 90 92 90 87 85 84 81
130 146 160 167 173 175 174 173 170 168 166 164 161 158 155 153 150 147 143 139 136 133 129 126 124 122 120 118 117 117 113 100 91 93 95 95 94 95 93 89 88 86 82
141 150 164 171 175 177 177 176 174 172 169 166 164 161 158 155 151 147 144 140 138 135 133 130 127 124 122 121 121 120 110 94 97 91 90 93 98 99 95 93 91 87 83
159 156 163 175 178 179 180 179 178 176 172 169 167 164 160 157 153 149 146 143 140 138 136 133 131 128 125 125 124 122 103 93 104 99 94 95 101 101 98 95 92 87 84
182 163 167 178 181 181 182 181 179 177 174 171 169 165 160 157 154 152 150 147 144 142 140 137 134 131 129 127 128 126 103 91 102 106 102 99 104 103 99 97 94 89 85
242 182 184 185 184 182 182 182 180 177 175 172 168 163 158 156 156 153 150 149 147 145 143 139 137 134 132 131 133 132 111 97 105 99 101 107 111 108 104 101 97 93 88
260 217 199 196 189 183 182 183 178 177 175 171 166 158 155 155 154 152 150 150 149 147 145 142 139 136 134 136 141 145 135 113 104 99 102 114 117 114 110 104 101 97 92
246 231 219 203 197 186 186 180 176 176 173 171 166 162 160 156 155 152 150 151 150 149 147 145 141 140 138 143 152 162 148 119 110 107 112 121 121 117 114 110 106 102 96
238 235 229 218 205 191 184 183 181 172 172 170 169 168 160 152 148 146 148 148 148 147 146 145 148 155 149 151 163 161 132 114 112 112 119 122 122 119 116 114 110 106 102
245 235 231 226 212 199 188 184 183 180 177 177 174 169 159 157 154 155 155 155 155 151 148 156 166 158 148 155 156 142 124 114 114 115 122 125 125 124 123 120 117 111 106
245 237 232 227 219 206 192 185 185 184 180 178 174 169 161 160 160 161 160 158 158 154 159 166 164 150 151 156 153 142 133 124 120 119 123 125 128 127 127 127 125 121 113
245 234 233 226 223 211 198 189 182 185 182 177 175 171 164 162 163 164 159 159 157 158 163 166 155 152 149 143 144 139 135 128 125 128 131 127 129 132 133 133 133 131 125
247 234 229 227 222 212 200 192 183 182 186 181 177 172 169 164 164 163 161 160 159 160 162 163 146 147 140 139 143 139 134 130 131 135 140 139 137 136 137 142 141 140 135
247 237 227 229 220 210 202 194 185 181 189 185 175 172 171 167 165 161 158 159 158 159 161 157 150 144 141 142 138 132 119 122 130 138 144 148 151 148 146 148 153 155 153
249 239 227 222 217 209 201 196 189 183 185 184 175 174 172 169 166 161 158 157 157 158 159 158 152 147 147 143 135 127 123 125 135 142 148 154 156 152 153 157 158 162 170
244 240 228 223 215 203 197 195 192 184 183 185 176 173 171 171 167 161 158 157 158 158 158 156 153 149 148 144 137 126 128 131 140 151 155 150 155 159 161 165 167 177 187
247 241 225 222 213 197 189 187 190 188 182 183 179 170 169 170 168 161 159 159 160 162 162 158 153 151 147 139 124 114 92 134 160 166 158 154 165 170 168 170 176 178 187
250 243 222 223 218 201 189 187 187 185 182 184 179 172 170 171 168 166 162 163 163 163 164 163 156 149 153 149 144 136 134 198 248 191 172 172 177 167 172 182 183 179 178
255 241 234 226 221 207 191 185 184 182 177 184 180 174 175 175 171 167 166 163 166 166 169 167 164 156 160 163 166 158 154 182 186 212 195 181 182 182 183 184 185 188 188
271 244 230 228 221 206 192 191 190 193 192 187 179 174 175 176 172 167 169 166 169 169 169 169 167 162 160 169 186 202 169 144 146 162 214 203 195 193 188 186 183 190 193
291 253 232 225 228 209 196 197 195 196 196 182 173 173 178 175 173 171 170 169 171 171 171 169 168 166 168 171 175 174 168 124 138 143 178 202 208 208 193 183 176 183 193
309 280 242 232 233 221 203 203 200 194 192 184 176 177 178 175 175 174 172 172 173 172 172 172 170 171 173 173 172 166 162 159 179 163 165 178 192 212 196 186 178 176 182
Height
1461 1462 1464 1466 1469 1472 1475 1479 1482 1485 1488 1491 1494 1497 1499 1502 1504 1507 1509 1511 1513 1515 1516 1518 1519 1520 1521 1522 1523 1524 1525 1526 1527 1528 1528 1529 1529 1530 1530 1530 1530 1530 1531
1461 1462 1464 1466 1469 1472 1475 1478 1481 1485 1488 1491 1494 1497 1499 1502 1504 1507 1509 1511 1513 1515 1516 1518 1519 1520 1521 1522 1523 1525 1526 1527 1528 1528 1529 1529 1530 1530 1531 1531 1531 1531 1531
1461 1461 1464 1466 1469 1472 1475 1478 1481 1484 1487 1491 1494 1496 1499 1502 1504 1507 1509 1511 1513 1515 1516 1518 1519 1520 1522 1523 1524 1525 1527 1528 1529 1529 1529 1530 1531 1531 1531 1532 1532 1533 1533
1461 1462 1464 1466 1469 1471 1475 1478 1481 1484 1487 1490 1493 1496 1499 1501 1504 1507 1509 1511 1513 1515 1516 1518 1519 1520 1522 1523 1524 1526 1527 1529 1530 1530 1530 1531 1532 1532 1533 1533 1533 1534 1534
1461 1462 1464 1466 1469 1471 1474 1477 1480 1483 1486 1489 1492 1495 1498 1501 1504 1506 1509 1511 1512 1514 1516 1517 1519 1520 1522 1523 1525 1526 1528 1529 1530 1531 1531 1532 1533 1533 1534 1534 1534 1535 1535
1461 1462 1464 1466 1468 1471 1473 1476 1479 1482 1485 1488 1491 1494 1497 1500 1503 1505 1508 1510 1512 1514 1516 1517 1519 1520 1522 1523 1525 1527 1528 1529 1530 1531 1532 1533 1534 1534 1535 1535 1536 1536 1536
1460 1461 1463 1465 1467 1470 1472 1475 1478 1481 1484 1487 1490 1493 1496 1499 1501 1504 1507 1509 1511 1513 1515 1517 1518 1520 1521 1523 1525 1527 1529 1530 1531 1532 1532 1534 1535 1535 1536 1536 1537 1537 1537
1459 1460 1461 1464 1466 1468 1471 1473 1476 1479 1482 1485 1489 1492 1495 1497 1500 1503 1506 1508 1511 1513 1514 1516 1518 1520 1521 1523 1525 1527 1529 1530 1532 1532 1533 1534 1536 1536 1537 1537 1537 1538 1538
1457 1458 1459 1462 1464 1466 1469 1471 1474 1477 1480 1483 1486 1490 1493 1496 1499 1502 1504 1507 1510 1512 1514 1515 1517 1519 1521 1523 1525 1527 1529 1531 1532 1533 1533 1535 1536 1537 1537 1538 1538 1539 1539
1454 1455 1457 1459 1461 1464 1466 1469 1472 1474 1478 1481 1484 1487 1491 1494 1497 1500 1503 1506 1508 1511 1513 1515 1517 1519 1521 1523 1525 1528 1530 1531 1532 1533 1534 1535 1536 1537 1538 1538 1539 1539 1540
1451 1453 1454 1456 1458 1460 1463 1466 1468 1471 1475 1478 1482 1485 1489 1492 1495 1498 1501 1504 1507 1510 1512 1514 1516 1518 1521 1523 1526 1528 1530 1531 1532 1533 1534 1536 1537 1538 1538 1539 1539 1540 1540
1448 1449 1451 1453 1455 1457 1459 1462 1465 1468 1471 1475 1478 1482 1486 1489 1492 1496 1499 1502 1506 1508 1511 1513 1516 1518 1520 1523 1526 1528 1530 1531 1532 1533 1534 1536 1537 1538 1538 1539 1540 1540 1541
1445 1445 1446 1448 1450 1452 1454 1457 1460 1463 1467 1470 1474 1478 1482 1486 1489 1493 1496 1500 1503 1506 1509 1512 1515 1517 1520 1523 1525 1527 1529 1531 1532 1533 1534 1536 1537 1538 1539 1539 1540 1541 1541
1440 1441 1442 1444 1446 1448 1450 1452 1455 1458 1462 1465 1469 1473 1477 1481 1485 1489 1493 1497 1500 1504 1507 1510 1513 1517 1519 1522 1525 1527 1529 1531 1531 1532 1534 1536 1537 1538 1539 1540 1540 1541 1541
1435 1436 1437 1438 1440 1443 1445 1447 1450 1453 1457 1461 1465 1469 1473 1476 1481 1485 1489 1493 1498 1501 1505 1509 1512 1515 1518 1521 1524 1527 1528 1530 1531 1532 1534 1535 1537 1538 1539 1540 1540 1541 1541
1429 1430 1432 1433 1435 1437 1439 1442 1445 1448 1452 1456 1460 1464 1468 1472 1477 1481 1485 1490 1495 1499 1503 1507 1511 1514 1517 1520 1523 1526 1528 1530 1531 1532 1533 1535 1536 1537 1538 1539 1540 1541 1541
1423 1425 1426 1427 1429 1432 1434 1437 1440 1443 1447 1451 1455 1459 1463 1468 1472 1477 1482 1486 1491 1496 1501 1505 1509 1513 1516 1519 1522 1525 1527 1529 1530 1531 1533 1534 1536 1537 1538 1539 1540 1540 1541
1418 1419 1420 1422 1423 1425 1428 1431 1434 1438 1441 1445 1449 1454 1458 1463 1468 1473 1478 1482 1487 1493 1498 1502 1506 1510 1514 1517 1520 1523 1526 1528 1529 1531 1532 1533 1535 1536 1537 1538 1539 1540 1540
1412 1413 1414 1416 1417 1419 1422 1426 1429 1433 1436 1440 1444 1449 1453 1458 1463 1468 1474 1479 1484 1489 1494 1499 1504 1508 1511 1515 1518 1522 1524 1527 1528 1530 1531 1533 1534 1535 1536 1537 1538 1539 1539
1406 1407 1408 1410 1412 1414 1417 1420 1424 1427 1430 1434 1438 1443 1447 1453 1457 1463 1469 1475 1480 1485 1491 1496 1500 1505 1509 1513 1516 1520 1523 1526 1527 1529 1530 1531 1533 1534 1535 1536 1536 1537 1537
1399 1400 1402 1404 1405 1407 1410 1413 1416 1419 1423 1428 1432 1436 1442 1447 1452 1458 1464 1470 1476 1481 1486 1492 1497 1502 1506 1510 1514 1518 1522 1524 1526 1527 1529 1530 1531 1532 1533 1534 1535 1535 1536
1394 1395 1396 1398 1400 1401 1404 1408 1412 1415 1418 1423 1427 1431 1437 1442 1447 1452 1458 1464 1471 1477 1482 1488 1493 1498 1503 1507 1510 1514 1519 1523 1524 1525 1526 1528 1529 1530 1531 1532 1533 1533 1533
1389 1389 1390 1392 1394 1397 1400 1403 1407 1411 1414 1418 1421 1426 1432 1438 1443 1448 1453 1459 1466 1472 1477 1483 1488 1493 1497 1503 1507 1510 1514 1516 1520 1522 1523 1525 1527 1528 1529 1530 1531 1531 1531
1384 1385 1386 1387 1389 1392 1395 1398 1401 1404 1407 1411 1416 1421 1427 1433 1438 1444 1449 1455 1461 1467 1473 1479 1484 1489 1493 1498 1503 1507 1510 1511 1515 1518 1521 1522 1524 1525 1526 1527 1528 1528 1529
1382 1381 1382 1383 1385 1387 1390 1393 1396 1400 1404 1408 1413 1417 1423 1429 1435 1440 1445 1451 1457 1463 1468 1474 1480 1485 1489 1494 1498 1502 1506 1509 1511 1512 1515 1518 1521 1522 1523 1524 1525 1526 1526
1379 1379 1379 1380 1381 1383 1386 1388 1391 1394 1399 1402 1407 1413 1418 1424 1431 1436 1441 1447 1452 1458 1464 1469 1475 1480 1485 1490 1494 1498 1502 1505 1507 1509 1511 1514 1517 1519 1520 1521 1522 1522 1523